SL-12 R/B(2), 38104

Orbit data source: Space-Track

SL-12 R/B(2), 38104 is space debris in GEO originally from a launch on Fri, 30 Mar 2012 UTC launched from the Tyuratam Missile And Space Complex (TTMTR). Debris objects in space refer to the collection of defunct objects orbiting the Earth. Examples of debris include non-operational satellites, rocket bodies, and fragments generated from explosions, collisions, or faulty payload assembly.

Loading next visibility...
SL-12 R/B(2) details
Identifier
38104, 2012-012D
Orbit
GEO
Last TLE update10 hours ago
Origin
Flag of CISKhrunichev (CIS)
ManufacturerRKKE
MissionSpacecraft
Bus & MotorBLOK DM2, Unknown motor
Mass2,440 kg wet, 2,440 kg dry
Launch date (UTC)
2012-03-30 (13 years ago)
Launch vehicleUnknown
Launch site
Tyuratam Missile And Space Complex (TTMTR)
Object type
Payload
Rocket body
Debris
Shape & HBRCyl, 7.1 m
Radar Cross Section26.008 m², Large (>1 m²)

Expand to show TLE details & history

TLE from 10 hours ago
0 SL-12 R/B(2)
1 38104U 12012D   24361.21738000  .00000101  00000-0  00000-0 0  9991
2 38104   7.5861  61.7039 0011261 283.5299  55.8168  1.00168780 46666
Epoch: 2024-12-26T05:13Z
Definitive object data (Epoch: 2024-12-26T05:13:01.631Z)
Latitude-2.6496°
Longitude-132.13827°
Altitude35,788.935 km
Speed3.076 km/s
True Right ascension02h 45m 16s
True Declination-2° 38' 49"
Sunlit
Object was in daylight at TLE epoch
Visualization TLE readout
Latitude6.34163°
Longitude11.82306°
Altitude35,858.87 km
Speed3.07 km/s
Apparent Right ascension12h 07m 28s
Apparent Declination0° 53' 48"
Sunlit
Object is in daylight
Visualization observer readout
Local Sidereal Time14:10:06
Azimuth223.36° SW
Elevation42.047°
Doppler factor1
Orbital elements
Apogee altitude35,864.054 km
Perigee altitude35,769.023 km
Semi-major axis42,194.675 km
Eccentricity0.0011261
Inclination7.5861°
RAAN61.7039°
Arg. of periapsis283.5299°
True anomaly55.92363°
Mean anomaly55.8168°
Eccentric anomaly55.87021°
Mean motion0.25041 °/min
BSTARUnknown
Orbital period1437.63 mins
Loading historical data...
38104 neighbors
Authenticating...
Loading maneuver chart data...
Loading historical data...
Loading historical data...
Loading historical data...
Loading historical data...
Loading historical data...
Loading historical data...
Loading historical data...

SL-12 R/B(2) Visibility forecast

Observer location: undefined°, undefined

Span
Click to sort rows by Start time (UTC) header in descending order
Start Az.
Max El. time (UTC)
Max El. Az.
Max El.
End time (UTC)
End Az.
1440 mins2024-12-26 14:48:12.288Z223.345° SW2024-12-27 12:39:12.288Z224.998° SW34.261°2024-12-27 14:48:12.288Z223.779° SW
|